Silver Bay, MN

6:45 AM CDT on September 20, 2017 (GMT -0500)
Silver Bay Municipal

Weather History for KBFW - August, 2014

Change the Weather History Date:

Thursday, August 14, 2014

  Actual Average Record
Temperature  
Mean Temperature 54 °F -  
Max Temperature 68 °F 71 °F 93 °F (2015)
Min Temperature 41 °F 47 °F 32 °F (2013)
Degree Days  
Heating Degree Days 10    
Growing Degree Days 4 (Base 50)    
Moisture  
Dew Point 49 °F    
Average Humidity 84    
Maximum Humidity 100    
Minimum Humidity 52    
Precipitation  
Precipitation 0.00 in - - ()
Sea Level Pressure  
Sea Level Pressure 30.10 in    
Wind  
Wind Speed 2 mph (South)    
Max Wind Speed 12 mph    
Max Gust Speed 17 mph    
Visibility 9 miles    
Events Fog    
Averages and records for this station are not official NWS values.
T = Trace of Precipitation, MM = Missing Value Source: NWS Daily Summary

Daily Weather History Graph

Daily Weather History Graph

Search for Another Location

Airport or City:

Trip Planner

Search our weather history database for the weather conditions in past years. The results will help you decide how hot, cold, wet, or windy it might be!

Date:

Astronomy

Aug. 14, 2014 Rise Set
Actual Time 6:01 AM CDT 8:18 PM CDT
Civil Twilight 5:27 AM CDT 8:52 PM CDT
Nautical Twilight 4:45 AM CDT 9:34 PM CDT
Astronomical Twilight 3:57 AM CDT 10:21 PM CDT
Moon 10:18 PM CDT (8/14) 11:00 AM CDT (8/14)
Length of Visible Light 15h 25m
Length of Day
14h 17m
Waning Gibbous, 79% of the Moon is Illuminated
Aug 14
Waning Gibbous
Aug 17
Last Quarter
Aug 25
New
Sep 2
First Quarter
Sep 8
Full

Hourly Weather History & Observations

Time (CDT) Temp. Dew Point Humidity Pressure Visibility Wind Dir Wind Speed Gust Speed Precip Events Conditions
12:14 AM 44.6 °F 44.6 °F 100% 30.14 in 10.0 mi Calm Calm - N/A   Clear
12:34 AM 44.6 °F 44.6 °F 100% 30.14 in 10.0 mi Calm Calm - N/A   Clear
12:54 AM 44.6 °F 44.6 °F 100% 30.14 in 10.0 mi Calm Calm - N/A   Clear
1:14 AM 44.6 °F 44.6 °F 100% 30.14 in 10.0 mi Calm Calm - N/A   Clear
1:34 AM 44.6 °F 44.6 °F 100% 30.14 in 10.0 mi Calm Calm - N/A   Clear
1:54 AM 42.8 °F 42.8 °F 100% 30.14 in 10.0 mi Calm Calm - N/A   Clear
2:14 AM 44.6 °F 44.6 °F 100% 30.14 in 10.0 mi Calm Calm - N/A   Clear
2:34 AM 42.8 °F 42.8 °F 100% 30.14 in 10.0 mi Calm Calm - N/A   Scattered Clouds
2:54 AM 42.8 °F 42.8 °F 100% 30.14 in 10.0 mi Calm Calm - N/A   Scattered Clouds
3:14 AM 42.8 °F 42.8 °F 100% 30.14 in 10.0 mi Calm Calm - N/A   Scattered Clouds
3:34 AM 42.8 °F 42.8 °F 100% 30.14 in 10.0 mi Calm Calm - N/A   Clear
3:54 AM 42.8 °F 42.8 °F 100% 30.14 in 10.0 mi Calm Calm - N/A   Clear
4:14 AM 42.8 °F 42.8 °F 100% 30.14 in 10.0 mi Calm Calm - N/A   Clear
4:34 AM 41.0 °F 41.0 °F 100% 30.14 in 7.0 mi Calm Calm - N/A   Clear
4:54 AM 41.0 °F 41.0 °F 100% 30.15 in 10.0 mi Calm Calm - N/A   Clear
5:14 AM 42.8 °F 42.8 °F 100% 30.16 in 10.0 mi Calm Calm - N/A   Scattered Clouds
5:34 AM 41.0 °F 41.0 °F 100% 30.16 in 10.0 mi Calm Calm - N/A   Scattered Clouds
5:54 AM 41.0 °F 41.0 °F 100% 30.16 in 5.0 mi Calm Calm - N/A   Overcast
6:14 AM 42.8 °F 42.8 °F 100% 30.16 in 0.8 mi Calm Calm - N/A   Overcast
6:34 AM 42.8 °F 42.8 °F 100% 30.16 in 1.8 mi Calm Calm - N/A   Overcast
6:54 AM 42.8 °F 42.8 °F 100% 30.16 in 0.2 mi Calm Calm - N/A Fog Fog
7:14 AM 44.6 °F 44.6 °F 100% 30.16 in 0.5 mi Calm Calm - N/A Fog Fog
7:34 AM 48.2 °F 48.2 °F 100% 30.15 in 10.0 mi Calm Calm - N/A   Clear
7:54 AM 51.8 °F 51.8 °F 100% 30.16 in 10.0 mi Calm Calm - N/A   Clear
8:14 AM 53.6 °F 53.6 °F 100% 30.16 in 10.0 mi Calm Calm - N/A   Clear
8:34 AM 55.4 °F 55.4 °F 100% 30.16 in 10.0 mi Calm Calm - N/A   Clear
8:54 AM 59.0 °F 57.2 °F 94% 30.16 in 10.0 mi Calm Calm - N/A   Clear
9:14 AM 60.8 °F 55.4 °F 82% 30.16 in 10.0 mi South 3.5 mph - N/A   Clear
9:34 AM 62.6 °F 53.6 °F 72% 30.16 in 10.0 mi SSW 3.5 mph - N/A   Clear
9:54 AM 62.6 °F 53.6 °F 72% 30.16 in 10.0 mi SSW 5.8 mph - N/A   Clear
10:14 AM 64.4 °F 50.0 °F 59% 30.16 in 10.0 mi SSW 6.9 mph - N/A   Clear
10:34 AM 64.4 °F 51.8 °F 64% 30.15 in 10.0 mi SSW 6.9 mph - N/A   Clear
10:54 AM 64.4 °F 51.8 °F 64% 30.15 in 10.0 mi SSW 6.9 mph - N/A   Clear
11:14 AM 64.4 °F 51.8 °F 64% 30.14 in 10.0 mi South 5.8 mph - N/A   Clear
11:34 AM 64.4 °F 51.8 °F 64% 30.14 in 10.0 mi South 6.9 mph - N/A   Clear
11:54 AM 66.2 °F 51.8 °F 60% 30.13 in 10.0 mi SSW 5.8 mph - N/A   Clear
12:14 PM 66.2 °F 48.2 °F 52% 30.13 in 10.0 mi South 9.2 mph - N/A   Clear
12:34 PM 64.4 °F 48.2 °F 56% 30.13 in 10.0 mi South 10.4 mph - N/A   Clear
12:54 PM 64.4 °F 48.2 °F 56% 30.12 in 10.0 mi SSE 10.4 mph - N/A   Clear
1:14 PM 66.2 °F 51.8 °F 60% 30.12 in 10.0 mi SE 6.9 mph - N/A   Clear
1:34 PM 66.2 °F 51.8 °F 60% 30.11 in 10.0 mi SSE 11.5 mph 17.3 mph N/A   Clear
1:54 PM 64.4 °F 51.8 °F 64% 30.11 in 10.0 mi South 9.2 mph - N/A   Clear
2:14 PM 64.4 °F 51.8 °F 64% 30.10 in 10.0 mi South 8.1 mph - N/A   Clear
2:34 PM 64.4 °F 51.8 °F 64% 30.10 in 10.0 mi South 5.8 mph - N/A   Clear
2:54 PM 66.2 °F 51.8 °F 60% 30.09 in 10.0 mi South 8.1 mph - N/A   Clear
3:14 PM 66.2 °F 51.8 °F 60% 30.08 in 10.0 mi South 5.8 mph - N/A   Clear
3:34 PM 68.0 °F 53.6 °F 60% 30.08 in 10.0 mi South 6.9 mph - N/A   Clear
3:54 PM 68.0 °F 53.6 °F 60% 30.07 in 10.0 mi SSE 8.1 mph - N/A   Clear
4:14 PM 66.2 °F 53.6 °F 64% 30.07 in 10.0 mi SE 9.2 mph - N/A   Clear
4:34 PM 66.2 °F 51.8 °F 60% 30.06 in 10.0 mi SSE 10.4 mph - N/A   Clear
4:54 PM 66.2 °F 51.8 °F 60% 30.06 in 10.0 mi South 10.4 mph - N/A   Clear
5:14 PM 66.2 °F 51.8 °F 60% 30.05 in 10.0 mi South 9.2 mph - N/A   Clear
5:34 PM 66.2 °F 51.8 °F 60% 30.05 in 10.0 mi SSE 6.9 mph - N/A   Clear
5:54 PM 64.4 °F 51.8 °F 64% 30.04 in 10.0 mi SSE 4.6 mph - N/A   Clear
6:14 PM 62.6 °F 53.6 °F 72% 30.04 in 10.0 mi Calm Calm - N/A   Clear
6:34 PM 62.6 °F 53.6 °F 72% 30.03 in 10.0 mi South 3.5 mph - N/A   Clear
6:54 PM 60.8 °F 55.4 °F 82% 30.03 in 10.0 mi Calm Calm - N/A   Clear
7:14 PM 60.8 °F 55.4 °F 82% 30.03 in 10.0 mi Calm Calm - N/A   Clear
7:34 PM 57.2 °F 55.4 °F 94% 30.02 in 10.0 mi Calm Calm - N/A   Clear
7:54 PM 57.2 °F 55.4 °F 94% 30.01 in 10.0 mi Calm Calm - N/A   Clear
8:14 PM 55.4 °F 55.4 °F 100% 30.02 in 10.0 mi Calm Calm - N/A   Clear
8:34 PM 53.6 °F 53.6 °F 100% 30.01 in 10.0 mi Calm Calm - N/A   Clear
8:54 PM 51.8 °F 51.8 °F 100% 30.02 in 10.0 mi Calm Calm - N/A   Clear
9:14 PM 51.8 °F 51.8 °F 100% 30.01 in 10.0 mi Calm Calm - N/A   Clear
9:34 PM 51.8 °F 51.8 °F 100% 30.01 in 10.0 mi Calm Calm - N/A   Clear
9:54 PM 50.0 °F 50.0 °F 100% 30.02 in 10.0 mi Calm Calm - N/A   Clear
10:14 PM 48.2 °F 48.2 °F 100% 30.01 in 10.0 mi Calm Calm - N/A   Clear
10:34 PM 48.2 °F 48.2 °F 100% 30.01 in 10.0 mi Calm Calm - N/A   Clear
10:54 PM 46.4 °F 46.4 °F 100% 30.01 in 10.0 mi Calm Calm - N/A   Clear
11:14 PM 46.4 °F 46.4 °F 100% 30.01 in 10.0 mi Calm Calm - N/A   Clear
11:34 PM 46.4 °F 46.4 °F 100% 30.01 in 10.0 mi Calm Calm - N/A   Clear
11:54 PM 46.4 °F 46.4 °F 100% 30.01 in 10.0 mi Calm Calm - N/A   Clear